Evanston, WY

12:01 AM MDT on July 26, 2017 (GMT -0600)
Evanston-Uinta County Burns

Weather History for KEVW - November, 2011

Change the Weather History Date:

Sunday, November 20, 2011

  Actual Average Record
Temperature  
Mean Temperature 18 °F 27 °F  
Max Temperature 28 °F 36 °F 56 °F (2016)
Min Temperature 8 °F 19 °F 8 °F (2011)
Degree Days  
Heating Degree Days 47 38  
Month to date heating degree days 757 660  
Since 1 July heating degree days 1565 1713  
Cooling Degree Days 0 0  
Month to date cooling degree days 0 0  
Year to date cooling degree days 166 162  
Moisture  
Dew Point 13 °F    
Average Humidity 82    
Maximum Humidity 92    
Minimum Humidity 71    
Precipitation  
Precipitation 0.00 in 0.03 in 0.07 in (2010)
Month to date precipitation 0.51 0.79  
Year to date precipitation 7.52 11.30  
Sea Level Pressure  
Sea Level Pressure 30.08 in    
Wind  
Wind Speed 7 mph (East)    
Max Wind Speed 13 mph    
Max Gust Speed -    
Visibility 10 miles    
Events Snow    
T = Trace of Precipitation, MM = Missing Value Source: NWS Daily Summary

Daily Weather History Graph

Daily Weather History Graph

Search for Another Location

Airport or City:

Trip Planner

Search our weather history database for the weather conditions in past years. The results will help you decide how hot, cold, wet, or windy it might be!

Date:

Astronomy

Nov. 20, 2011 Rise Set
Actual Time 7:17 AM MST 5:01 PM MST
Civil Twilight 6:47 AM MST 5:31 PM MST
Nautical Twilight 6:14 AM MST 6:04 PM MST
Astronomical Twilight 5:41 AM MST 6:37 PM MST
Moon 1:47 AM MST (11/20) 1:54 PM MST (11/20)
Length of Visible Light 10h 43m
Length of Day
9h 43m
Waning Crescent, 26% of the Moon is Illuminated
Nov 20
Waning Crescent
Nov 24
New
Dec 2
First Quarter
Dec 10
Full
Dec 17
Last Quarter

Hourly Weather History & Observations

Time (MST) Temp. Windchill Dew Point Humidity Pressure Visibility Wind Dir Wind Speed Gust Speed Precip Events Conditions
12:53 AM 12.0 °F - 7.0 °F 80% 30.00 in 10.0 mi Calm Calm - N/A   Clear
1:53 AM 12.0 °F 2.7 °F 6.1 °F 77% 29.99 in 10.0 mi East 5.8 mph - N/A   Clear
2:53 AM 10.0 °F -1.9 °F 6.1 °F 84% 30.01 in 10.0 mi ENE 8.1 mph - N/A   Clear
3:53 AM 10.9 °F -0.8 °F 7.0 °F 84% 30.02 in 10.0 mi NE 8.1 mph - N/A   Clear
5:53 AM 9.0 °F -3.2 °F 6.1 °F 88% 30.07 in 10.0 mi East 8.1 mph - N/A   Clear
6:53 AM 8.1 °F -5.3 °F 6.1 °F 92% 30.07 in 10.0 mi East 9.2 mph - N/A   Clear
7:53 AM 10.0 °F -3.7 °F 7.0 °F 87% 30.09 in 10.0 mi East 10.4 mph - N/A   Clear
8:53 AM 12.0 °F -2.7 °F 9.0 °F 88% 30.09 in 10.0 mi ESE 12.7 mph - N/A   Overcast
9:53 AM 15.1 °F 1.8 °F 10.9 °F 84% 30.09 in 7.0 mi East 11.5 mph - 0.00 in Snow Light Snow
10:53 AM 18.0 °F 6.9 °F 12.9 °F 81% 30.09 in 10.0 mi East 9.2 mph - 0.00 in   Overcast
11:53 AM 21.0 °F 10.6 °F 15.1 °F 78% 30.07 in 10.0 mi ESE 9.2 mph - N/A   Mostly Cloudy
12:53 PM 24.1 °F 18.2 °F 17.1 °F 75% 30.06 in 10.0 mi ESE 4.6 mph - 0.00 in   Overcast
1:53 PM 24.1 °F 17.0 °F 18.0 °F 77% 30.06 in 10.0 mi East 5.8 mph - N/A   Partly Cloudy
2:53 PM 25.0 °F 19.3 °F 19.0 °F 78% 30.06 in 10.0 mi East 4.6 mph - N/A   Scattered Clouds
3:53 PM 27.0 °F - 19.9 °F 75% 30.06 in 10.0 mi Calm Calm - N/A   Mostly Cloudy
4:53 PM 25.0 °F 20.7 °F 19.0 °F 78% 30.08 in 10.0 mi NNE 3.5 mph - N/A   Overcast
5:53 PM 21.9 °F 12.5 °F 18.0 °F 85% 30.12 in 10.0 mi East 8.1 mph - N/A   Overcast
7:53 PM 21.0 °F 11.4 °F 17.1 °F 85% 30.16 in 10.0 mi East 8.1 mph - N/A   Overcast
8:53 PM 23.0 °F 13.1 °F 18.0 °F 81% 30.14 in 10.0 mi East 9.2 mph - N/A   Partly Cloudy
9:53 PM 23.0 °F 13.9 °F 18.0 °F 81% 30.14 in 10.0 mi East 8.1 mph - N/A   Clear
10:53 PM 21.0 °F 10.6 °F 17.1 °F 85% 30.13 in 10.0 mi East 9.2 mph - N/A   Overcast
11:53 PM 24.1 °F 15.2 °F 19.0 °F 81% 30.10 in 10.0 mi East 8.1 mph - N/A   Overcast